LEMUR-2-STEVEALBERS (55017 NORAD) Tracking and Keplerian Element Data

This shows tracking and keplerian element data for the satellite.

Feedback or suggestion? Click here.




ElementValue
Catalog55017
NameLEMUR-2-STEVEALBERS
Epoch Orbit1245
Epoch Day84.92200773
Epoch Year2023
RAAN145.6683
Inclination97.4831
Eccentricity0.0008367
Argument of Perigee303.5471
Mean Anonmoly56.4962
Mean Motion15.1519997
Decay Rate0.000255
L11 55017U 23001J 23084.92200773 .00025500 00000+0 13568-2 0 9997
L22 55017 97.4831 145.6683 0008367 303.5471 56.4962 15.15199970 12453



Live tracking and technical data element details for LEMUR-2-STEVEALBERS (NORAD 55017). LEMUR-2-STEVEALBERS can be tracked NOW for your location showing map with azimuth and elevation plus other details from your city location.







IsCatalogInMostPopularTable: catalog: 55017, numindb: 8
Update: records affected: 1



GetName: 55017 LEMUR-2-STEVEALBERS

Hit Count: updated at: Mon, 27 Mar 2023 06:42:38 GMT